[[{"header":{"parameterUnit":"m.s-1","parameterCategory":1,"la1":30.2991,"la2":30.254,"lo1":-89.0895,"lo2":-89.0444,"dy":0.0017,"dx":0.0017,"nx":28,"ny":28,"refTime":"2025-03-14T09:00:00:Z","depth":0,"parameterNumber":2,"parameterNumberName":"U-component_of_WINDS"},"data":[0,0,0,0,0,0,0,0,0,0,0,0,0,0,0,0,0,0,0,0,0,0,0,0,0,0,0,0,0,0,0,0,0,0,0,0,0,0,0,0,0,0,0,0,0,0,0,0,0,0,0,0,0,0,0,0,0,0,-5.0065,-5.0067,0,-5.0235,-5.0237,-5.0239,-5.0288,-5.0287,-5.0286,-5.0286,-5.0455,-5.046,-5.0465,0,0,0,0,0,0,0,0,0,0,0,0,0,-4.9779,-4.9784,-5.0065,-5.0067,-5.0069,-5.0235,-5.0237,-5.024,-5.0288,-5.0287,-5.0286,-5.0285,-5.0453,-5.0459,-5.0466,0,0,0,0,0,0,0,0,0,0,0,0,0,-4.9921,-4.9785,-5.0065,-5.0114,-5.012,-5.0235,-5.0237,-5.024,-5.0289,-5.0287,-5.0286,-5.0285,-5.0451,-5.0459,-5.0467,-5.0543,0,0,-5.0491,-5.0495,0,0,0,0,0,0,0,0,-4.9913,-4.9932,-5.0104,-5.0111,-5.0118,-5.0239,-5.0198,-5.0342,-5.0289,-5.0224,-5.0286,-5.0284,-5.0384,-5.0397,-5.0432,-5.0551,-5.0558,-5.0492,-5.0497,-5.05,-5.0502,0,0,0,0,0,0,0,-4.9903,-4.9924,-5.0132,-5.0107,-5.0115,-5.0126,-5.0145,-5.0226,-5.0309,-5.023,-5.0234,-5.0254,-5.0387,-5.0424,-5.0436,-5.0561,-5.0492,-5.0499,-5.0504,-5.0507,-5.0751,-5.0753,0,0,0,0,0,0,-4.9885,-4.9916,-5.0127,-5.0137,-5.001,-5.0132,-5.0153,-5.0201,-5.0309,-5.0324,-5.0255,-5.0255,-5.0411,-5.0427,-5.0443,-5.0539,-5.05,-5.0508,-5.0512,-5.075,-5.0752,-5.0754,0,0,0,0,0,0,-4.9879,-4.9904,-5.012,-5.0028,-5.0056,-5.0139,-5.0192,-5.0206,-5.0243,-5.0328,-5.0342,-5.0277,-5.0411,-5.0431,-5.0518,-5.0545,-5.0511,-5.0519,-5.0748,-5.075,-5.0753,-5.0732,0,0,0,0,0,0,-4.9871,-4.9901,-4.9932,-5.0028,-5.0061,-5.0194,-5.0194,-5.021,-5.0257,-5.0259,-5.0353,-5.0367,-5.0411,-5.0506,-5.0526,-5.0556,-5.0525,-5.0746,-5.0749,-5.0752,-5.073,-5.0733,-5.0736,0,0,0,0,0,-4.986,-4.9918,-4.9933,-4.9958,-5.0101,-5.0195,-5.0214,-5.0265,-5.0259,-5.029,-5.0345,-5.0364,-5.054,-5.0514,-5.0538,-5.057,-5.0744,-5.0748,-5.0752,-5.0729,-5.0733,-5.0736,0,0,0,0,0,0,-4.982,-4.9931,-4.9949,-5.004,-5.0108,-5.0203,-5.0244,-5.0267,-5.0337,-5.0336,-5.0396,-5.0416,-5.0499,-5.0544,-5.0513,-5.065,-5.0642,-5.0651,-5.0617,-5.0621,-5.0624,-5.061,-5.0532,0,0,0,0,0,-4.9823,-4.9891,-4.9984,-5.0055,-5.0089,-5.016,-5.0203,-5.0237,-5.0309,-5.0337,-5.0399,-5.0466,-5.0537,-5.0582,-5.0652,-5.0738,-5.0758,-5.0772,-5.0774,-5.0776,-5.0782,-5.083,-5.0837,-5.0766,-5.0766,-5.0766,0,0,-4.9827,-4.9896,-4.9935,-5.0049,-5.0106,-5.0174,-5.0184,-5.0255,-5.0306,-5.0348,-5.0434,-5.0481,-5.0561,-5.0648,-5.0689,-5.0687,-5.0807,-5.0781,-5.0782,-5.0787,-5.0835,-5.0841,-5.0847,-5.0769,-5.0768,-5.0768,0,0,-4.9869,-4.9929,-4.9995,-5.0052,-5.0139,-5.0186,-5.0202,-5.0295,-5.0328,-5.0416,-5.0449,-5.051,-5.063,-5.0685,-5.0729,-5.0795,-5.0815,-5.0816,-5.0829,-5.0875,-5.0881,-5.0886,-5.0908,-5.0915,-5.0822,-5.0822,-5.0822,0,-4.9863,-4.9969,-5.0026,-5.0096,-5.0145,-5.0188,-5.0255,-5.0307,-5.041,-5.0442,-5.044,-5.0593,-5.065,-5.075,-5.0766,-5.08,-5.0819,-5.0804,-5.0876,-5.0882,-5.0887,-5.0909,-5.0917,-5.0821,-5.0822,-5.0822,-5.0822,0,-4.9956,-5.0029,-5.0072,-5.0173,-5.0227,-5.0294,-5.0361,-5.0408,-5.0438,-5.0486,-5.0574,-5.0644,-5.0729,-5.0756,-5.0785,-5.086,-5.0857,-5.0864,-5.0858,-5.0893,-5.0914,-5.0923,-5.0821,-5.0821,-5.0821,-5.0821,0,0,-4.9976,-5.011,-5.0124,-5.017,-5.027,-5.0326,-5.0396,-5.0481,-5.052,-5.0591,-5.065,-5.0752,-5.076,-5.081,-5.0846,-5.0887,-5.0933,-5.089,-5.0893,-5.0894,-5.1019,-5.1011,-5.102,-5.0948,-5.095,-5.0952,-5.1012,0,-5.003,-5.0158,-5.0212,-5.0314,-5.0381,-5.0424,-5.0485,-5.0552,-5.0599,-5.0662,-5.0713,-5.0784,-5.079,-5.0821,-5.0864,-5.0918,-5.0959,-5.0915,-5.1002,-5.1004,-5.0978,-5.1031,-5.1023,-5.1076,-5.1021,-5.1022,-5.1023,0,-5.0109,-5.0182,-5.0291,-5.0383,-5.0413,-5.0467,-5.0549,-5.061,-5.0686,-5.0717,-5.0774,-5.0809,-5.0882,-5.0873,-5.0975,-5.0944,-5.0983,-5.1016,-5.1019,-5.1027,-5.1014,-5.1039,-5.1095,-5.1102,-5.1037,-5.1036,-5.1035,0,-5.011,-5.0236,-5.0318,-5.0356,-5.0466,-5.0502,-5.055,-5.0625,-5.0673,-5.0745,-5.0776,-5.0854,-5.0897,-5.0957,-5.1011,-5.0999,-5.1108,-5.1103,-5.1134,-5.1132,-5.1153,-5.115,-5.1213,-5.1181,-5.1181,-5.1181,-5.1181,0,-5.0163,-5.0228,-5.032,-5.037,-5.0444,-5.0505,-5.0576,-5.0626,-5.0693,-5.0753,-5.0795,-5.085,-5.092,-5.0983,-5.1027,-5.1104,-5.1123,-5.1149,-5.1159,-5.1144,-5.1141,-5.1169,-5.1166,-5.1183,-5.1183,-5.1182,-5.1182,0,-5.0176,-5.024,-5.0332,-5.0429,-5.0455,-5.0505,-5.0588,-5.0637,-5.0687,-5.0762,-5.0783,-5.0861,-5.0938,-5.0999,-5.1099,-5.1128,-5.1209,-5.1221,-5.1183,-5.1188,-5.1215,-5.1211,-5.1297,-5.1311,-5.1271,-5.1271,-5.1271,0,-5.0205,-5.0256,-5.0359,-5.0403,-5.045,-5.052,-5.0569,-5.0632,-5.0681,-5.0774,-5.0812,-5.0892,-5.096,-5.1081,-5.1145,-5.1222,-5.1235,-5.126,-5.1247,-5.123,-5.1234,-5.1229,-5.1234,-5.1261,-5.1261,-5.1261,-5.1261,0,-5.0248,-5.0278,-5.0348,-5.043,-5.0488,-5.0555,-5.0623,-5.0656,-5.0731,-5.0784,-5.0865,-5.0917,-5.102,-5.1099,-5.1183,-5.123,-5.1258,-5.1265,-5.1276,-5.126,-5.1235,-5.1248,-5.1185,-5.1262,-5.1262,-5.1262,-5.1262,-5.1262,-5.0269,-5.0316,-5.0396,-5.0473,-5.0531,-5.0594,-5.0646,-5.0703,-5.0771,-5.0861,-5.0894,-5.0976,-5.1052,-5.1168,-5.1216,-5.128,-5.1282,-5.1298,-5.1302,-5.1305,-5.1302,-5.1227,-5.1296,-5.1296,-5.1296,-5.1296,-5.1296,0,-5.0313,-5.0367,-5.0438,-5.0532,-5.0592,-5.0616,-5.0692,-5.0741,-5.0813,-5.0882,-5.0949,-5.1041,-5.1118,-5.1189,-5.1269,-5.1307,-5.1322,-5.1326,-5.1323,-5.1333,-5.1297,-5.1278,-5.1313,-5.1313,-5.1313,-5.1313,-5.1313,-5.1313,-5.0343,-5.0424,-5.0464,-5.0574,-5.0628,-5.071,-5.0751,-5.0809,-5.0865,-5.0966,-5.1031,-5.1078,-5.1148,-5.1234,-5.1306,-5.1325,-5.1351,-5.1352,-5.1374,-5.1338,-5.1335,-5.1333,-5.1316,-5.1358,-5.1358,-5.1405,-5.1405,-5.1405]},{"header":{"parameterUnit":"m.s-1","parameterCategory":1,"la1":30.2991,"la2":30.254,"lo1":-89.0895,"lo2":-89.0444,"dy":0.0017,"dx":0.0017,"nx":28,"ny":28,"refTime":"2025-03-14T09:00:00:Z","depth":0,"parameterNumber":3,"parameterNumberName":"V-component_of_WINDS"},"data":[0,0,0,0,0,0,0,0,0,0,0,0,0,0,0,0,0,0,0,0,0,0,0,0,0,0,0,0,0,0,0,0,0,0,0,0,0,0,0,0,0,0,0,0,0,0,0,0,0,0,0,0,0,0,0,0,0,0,6.8965,6.8967,0,6.9076,6.9077,6.9078,6.9068,6.9067,6.9065,6.9064,6.9169,6.9173,6.9178,0,0,0,0,0,0,0,0,0,0,0,0,0,6.8741,6.8745,6.8965,6.8967,6.8968,6.9075,6.9077,6.9078,6.9069,6.9067,6.9065,6.9063,6.9168,6.9173,6.9178,0,0,0,0,0,0,0,0,0,0,0,0,0,6.8843,6.8747,6.8965,6.8976,6.8978,6.9075,6.9077,6.9079,6.9069,6.9067,6.9064,6.9062,6.9166,6.9172,6.9179,6.9269,0,0,6.9199,6.9202,0,0,0,0,0,0,0,0,6.8838,6.8852,6.8973,6.8976,6.8978,6.9056,6.9037,6.9142,6.907,6.9034,6.9063,6.9061,6.9133,6.9142,6.9168,6.9274,6.9278,6.9199,6.9203,6.9206,6.9208,0,0,0,0,0,0,0,6.883,6.8847,6.9009,6.8975,6.8978,6.8974,6.8986,6.9057,6.9096,6.9037,6.9037,6.9051,6.9134,6.9162,6.917,6.928,6.9199,6.9205,6.9209,6.9211,6.9469,6.9471,0,0,0,0,0,0,6.8822,6.8841,6.9005,6.9012,6.8901,6.898,6.8993,6.9033,6.9095,6.9103,6.9053,6.905,6.9152,6.9163,6.9174,6.9286,6.9206,6.9212,6.9216,6.9466,6.9469,6.9472,0,0,0,0,0,0,6.8817,6.8836,6.9001,6.8927,6.8947,6.8987,6.9032,6.9037,6.9065,6.9107,6.9113,6.9074,6.915,6.9165,6.9247,6.929,6.9215,6.9221,6.9462,6.9467,6.9471,6.951,0,0,0,0,0,0,6.8811,6.8835,6.8871,6.8928,6.8951,6.9073,6.9034,6.9041,6.9077,6.9074,6.9129,6.9135,6.9149,6.9237,6.9253,6.9297,6.9226,6.9458,6.9464,6.9469,6.9505,6.9515,6.9524,0,0,0,0,0,6.8803,6.8875,6.8872,6.8892,6.8997,6.9076,6.9089,6.9106,6.908,6.9116,6.9144,6.9134,6.9282,6.9245,6.9264,6.931,6.9456,6.9463,6.9469,6.9501,6.9513,6.9524,0,0,0,0,0,0,6.8818,6.8882,6.888,6.8974,6.902,6.9074,6.912,6.9118,6.917,6.9165,6.9181,6.9193,6.9276,6.9301,6.9259,6.9403,6.9365,6.9376,6.9384,6.9396,6.9405,6.9398,6.9232,0,0,0,0,0,6.8833,6.8894,6.8945,6.9023,6.9046,6.9079,6.9114,6.9123,6.9171,6.9189,6.9222,6.9267,6.9324,6.9361,6.9415,6.9508,6.9521,6.955,6.9559,6.9567,6.9576,6.963,6.9644,6.9494,6.9494,6.9494,0,0,6.8863,6.8906,6.8943,6.9027,6.9064,6.9126,6.9095,6.9161,6.9206,6.9198,6.9279,6.9305,6.9356,6.9445,6.9485,6.9468,6.962,6.9575,6.9581,6.9586,6.9638,6.9652,6.9665,6.9498,6.9497,6.9497,0,0,6.8951,6.8989,6.9059,6.9098,6.9155,6.9177,6.9194,6.925,6.9268,6.935,6.9346,6.9399,6.9496,6.9534,6.9565,6.967,6.9664,6.9687,6.9737,6.9789,6.9801,6.9811,6.9851,6.9865,6.9696,6.9696,6.9696,0,6.8981,6.9076,6.9094,6.9163,6.92,6.9199,6.927,6.9306,6.9377,6.9402,6.9382,6.9507,6.954,6.964,6.9666,6.9691,6.9711,6.9681,6.9798,6.9809,6.9819,6.9857,6.9872,6.9699,6.9698,6.9698,6.9698,0,6.9111,6.9177,6.9226,6.93,6.9342,6.9411,6.944,6.948,6.9486,6.951,6.9594,6.9635,6.97,6.9723,6.9728,6.9824,6.9812,6.9795,6.9758,6.9836,6.9872,6.9886,6.9703,6.9702,6.9701,6.97,0,0,6.921,6.9296,6.9314,6.9349,6.9414,6.9464,6.9532,6.9599,6.9635,6.9683,6.9742,6.9826,6.9812,6.9848,6.9857,6.9902,6.9986,6.988,6.9881,6.99,7.0097,7.0112,7.0128,6.9982,6.9985,6.9987,7.0094,0,6.9306,6.9432,6.9453,6.9562,6.9624,6.9625,6.9685,6.9731,6.9755,6.981,6.9835,6.9896,6.9871,6.9893,6.9938,6.9967,7.0026,6.9959,7.0037,7.0039,7.0026,7.0147,7.0161,7.026,7.0108,7.011,7.0112,0,6.9435,6.9493,6.961,6.9669,6.9696,6.975,6.9814,6.9866,6.9918,6.9932,6.9975,6.9979,7.005,7.001,7.0108,7.0062,7.0095,7.0113,7.0118,7.0127,7.0082,7.0161,7.0292,7.0308,7.0134,7.0132,7.0131,0,6.95,6.9605,6.969,6.9719,6.979,6.9829,6.9859,6.9909,6.9948,7.0003,7.0029,7.009,7.0123,7.017,7.0191,7.0159,7.0289,7.0249,7.0303,7.0303,7.0331,7.0329,7.0471,7.0349,7.0348,7.0348,7.0348,0,6.9606,6.9678,6.9721,6.9773,6.9854,6.9876,6.9955,6.9984,7.0029,7.0086,7.0089,7.0142,7.0165,7.0222,7.0237,7.0318,7.0332,7.0346,7.0349,7.0347,7.0346,7.037,7.0364,7.0352,7.0351,7.0351,7.035,0,6.9692,6.9724,6.9817,6.9878,6.9894,6.9952,7.0003,7.0053,7.0078,7.0151,7.0169,7.0207,7.0274,7.0299,7.0379,7.039,7.0484,7.048,7.0468,7.0469,7.0522,7.0518,7.0686,7.071,7.057,7.0571,7.0572,0,6.9759,6.9815,6.9884,6.9924,6.9957,7.0021,7.0063,7.0086,7.0129,7.0194,7.0237,7.0305,7.036,7.0467,7.0501,7.0563,7.0562,7.0617,7.0572,7.0568,7.0566,7.0564,7.057,7.0626,7.0627,7.0629,7.063,0,6.9875,6.9889,6.995,7.0019,7.0069,7.0122,7.0174,7.0206,7.0237,7.0285,7.0356,7.04,7.0484,7.0551,7.0616,7.0645,7.0644,7.0644,7.066,7.0659,7.065,7.0658,7.0493,7.064,7.0639,7.0638,7.0638,7.0637,6.9956,7.0007,7.0065,7.0134,7.0176,7.0225,7.0277,7.031,7.037,7.0443,7.0452,7.0529,7.058,7.0667,7.07,7.0759,7.0744,7.0767,7.0773,7.0779,7.0784,7.064,7.077,7.077,7.077,7.0769,7.0769,0,7.0075,7.0112,7.0176,7.0251,7.0305,7.0301,7.0358,7.0404,7.0472,7.0522,7.0578,7.066,7.0726,7.0766,7.0832,7.0872,7.0873,7.0889,7.0887,7.0894,7.0792,7.0773,7.0887,7.0887,7.0887,7.0887,7.0887,7.0887,7.0143,7.0231,7.0252,7.0361,7.0397,7.0475,7.0509,7.0554,7.0595,7.0688,7.0744,7.0771,7.0817,7.0887,7.0947,7.0957,7.0982,7.1,7.1009,7.0913,7.0901,7.089,7.0872,7.1005,7.1005,7.1107,7.1108,7.1108]}]]